Regional Weather Roundup
Issued by NWS

Home | Current Version | Previous Version | Graphics & Text | Print | Product List | Glossary On
Versions: 1 2 3 4 5 6 7 8 9 10 11 12 13 14 15 16 17 18 19 20 21 22 23 24 25 26 27 28 29 30 31 32 33 34 35 36 37 38 39 40 41 42 43 44 45 46 47 48 49 50
000
ASUS45 KTFX 300119
RWRMT
MONTANA HOURLY WEATHER ROUNDUP
NATIONAL WEATHER SERVICE GREAT FALLS MT
719 PM MDT SUN MAR 29 2015

NOTE: "FAIR" INDICATES FEW OR NO CLOUDS BELOW 12000 FEET WITH NO
SIGNIFICANT WEATHER AND/OR OBSTRUCTIONS TO VISIBILITY.

* THESE STATIONS ARE NOT UNDER NWS QUALITY CONTROL. THEY DO NOT
   REPORT WEATHER SUCH AS PRECIPITATION OR FOG.

MTZ001>007-043-300200-
WEST OF THE DIVIDE
CITY           SKY/WX    TMP DP  RH WIND       PRES   REMARKS
KALISPELL      CLOUDY    55  32  42 W9        30.11R
MISSOULA       CLOUDY    54  34  47 NW5       30.18R
BUTTE          CLEAR     54  25  33 NW12      30.15R
MULLAN PASS    CLOUDY    39  30  70 VRB6      30.18S WCI  35
* ESSEX        N/A       50  31  48 S1G7       N/A
* EUREKA APT   CLOUDY    55  34  45 S10G17    30.11F
* HAMILTON APT CLEAR     57  28  33 NW8       30.17F
* LIBBY APT    CLOUDY    55  36  49 SW3       30.13S
* LINCOLN      N/A       54  28  37 SW7G20     N/A
* LOOKOUT PASS N/A       48  34  59 SE4G11     N/A
* POLSON       N/A       53  34  49 S2G7       N/A
* SEELEY LAKE  N/A       53  30  41 W7G19      N/A
* THOMP F APT  MOCLDY    53  14  21 S9G17      N/A
* YAAK HILL    N/A       55  30  39 N1         N/A
$$

MTZ008-052>055-300200-
SOUTHWEST MONTANA
CITY           SKY/WX    TMP DP  RH WIND       PRES   REMARKS
BOZEMAN        PTCLDY    55  25  31 NW9       30.08F
DILLON         PTCLDY    57  21  25 W18G23    30.13S
* W YELLOWSTON CLEAR     48  20  33 SW5G16     N/A
* BOULDER HILL N/A       52  21  30 S16G24     N/A
* HOMESTAKE PS N/A       49  22  35 NW14G23    N/A
* MONIDA PASS  N/A       49  15  26 S11G22     N/A
* RAYNOLDS PAS N/A       50  35  57 S10G16     N/A
* WHITEHALL    N/A       64  22  20 NW12G25    N/A
* WISE RIVER   N/A       54  22  29 W17G27     N/A
$$

MTZ009>010-012-014-046-048-049-054-300200-
EAST SLOPES AND CENTRAL MONTANA
CITY           SKY/WX    TMP DP  RH WIND       PRES   REMARKS
CUT BANK       CLOUDY    52  28  40 SW14      29.99R
GREAT FALLS    CLOUDY    55  28  35 SW18G28   30.01S
HELENA         PTCLDY    57  27  32 W18       30.09R
MALMSTROM AFB  CLOUDY    57  27  32 W20G30    30.00F
* CONRAD       CLOUDY    54  30  40 SW16G23    N/A
* DEARBORN     N/A       57  29  34 S22G39     N/A
* EAST GLACIER N/A       49  29  46 W11G17     N/A
* MONARCH      N/A       49  18  29 W21G36     N/A
* PENDROY      N/A       51  28  41 NW15G20    N/A
* ROGERS PASS  N/A       46  27  48 E9G20      N/A
* SAINT MARY   N/A       47  29  50 S9G27      N/A
* WHITE SULPH  N/A       53  22  30 W7G16      N/A
$$

MTZ011-013-016-021-035-040-045-047-050-051-300200-
NORTH CENTRAL MONTANA
CITY           SKY/WX    TMP DP  RH WIND       PRES   REMARKS
HAVRE          CLOUDY    59  30  33 W26G35    29.91S
LEWISTOWN      CLOUDY    57  27  32 W14       30.00S
* N BAR RANCH  CLEAR     54  25  33 NW9G15    30.03R
* CHINOOK      MOCLDY    61  30  31 W14G21    29.90S
* FORT BENTON  CLOUDY    59  28  31 SW7       29.98S
* CHESTER      N/A       56  28  34 W14G24     N/A
* DENTON       N/A       57  23  27 W16G21     N/A
* GEYSER       N/A       54  18  24 W24G32     N/A
* JUDITH GAP   N/A       56  17  22 SW18G24    N/A
* LOMA         N/A       61  27  27 SW10G19    N/A
$$

MTZ017>020-022>027-061-062-300200-
NORTHEAST MONTANA
CITY           SKY/WX    TMP DP  RH WIND       PRES   REMARKS
GLASGOW        MOCLDY    57  30  36 W15       29.92S
GLENDIVE       CLOUDY    55  30  39 W13       29.97S
JORDAN         PTCLDY    57  28  33 W14       29.96F
SIDNEY         CLOUDY    55  30  39 W6        29.94F
WOLF POINT     MOCLDY    61  34  36 W10       29.92F
* BEAVER HILL  N/A       53  29  40 W6         N/A
* CIRCLE       N/A       57  36  46 W1         N/A
* LINDSAY DVD  N/A       55  30  39 SW12G20    N/A
* NAVAJO       N/A       54  33  45 W12        N/A
* PLENTYWOOD A MOCLDY    57  34  42 W14       29.88F
* POPLAR APT   CLOUDY    57  34  42 SW8       29.92F
* SACO         N/A       60  31  33 SW14G19    N/A
$$

MTZ028>042-056>058-300200-
SOUTHCENTRAL AND SOUTHEAST MONTANA
CITY           SKY/WX    TMP DP  RH WIND       PRES   REMARKS
BAKER          CLOUDY    54  30  40 W10       30.00F
BILLINGS       MOCLDY    61  18  19 N8        30.02S
LIVINGSTON     CLOUDY    61  18  19 W17       30.05S
MILES CITY     CLOUDY    59  27  29 W9        29.99S
* BIG TIMBER A CLEAR     57  18  22 W14G22    30.03F
* FORSYTH APT  PTCLDY    61  25  25 CALM      30.00S
* ALZADA       N/A       54  25  33 W5         N/A
* HYSHAM       N/A       61  18  19 NW3        N/A
* LAME DEER    N/A       56  18  22 W8         N/A
* REED POINT   N/A       64  24  22 W10G16     N/A
* ROSCOE HILL  N/A       54  12  19 NE4G9      N/A
$$

REGIONAL REPORTS...DAKOTAS
CITY           SKY/WX    TMP DP  RH WIND       PRES   REMARKS
WILLISTON      MOCLDY    54  36  51 SW6       29.91F
DICKINSON      PTCLDY    50  30  46 W3        29.95F
BEACH          CLEAR     50  30  46 W5        29.98F
CROSBY         MOCLDY    54  34  47 SW5       29.89F
TIOGA          MOCLDY    50  32  50 W6        29.94F
WATFORD CITY   CLEAR     50  32  50 W5        29.92F
BISMARCK       CLEAR     55  27  34 NW13      29.97S
GRAND FORKS    PTCLDY    48  30  50 W10       29.88S
FARGO          CLOUDY    50  28  43 NW9       29.91S
BUFFALO SD     MOCLDY    54  27  35 W10       29.96F
RAPID CITY     CLOUDY    57  28  33 NE3       30.05F
$$

REGIONAL REPORTS...WYOMING/IDAHO/WASHINGTON
CITY           SKY/WX    TMP DP  RH WIND       PRES   REMARKS
GILLETTE       CLOUDY    54  27  35 N5        30.07S
SHERIDAN       MOCLDY    54  34  47 SW5       30.05F
CODY           PTCLDY    57  12  17 W15G26    30.08S
YELLOWSTONE LA CLEAR     43  10  26 VRB5      30.27R
SALMON         PTCLDY    59  25  27 W5        30.12F
MULLAN PASS    CLOUDY    39  30  70 VRB6      30.18S WCI  35
SAND POINT     MOCLDY    55  41  59 CALM      30.14S
SPOKANE        CLOUDY    57  37  47 S7        30.13F
$$

REGIONAL REPORTS...ALBERTA
CITY           SKY/WX    TMP DP  RH WIND       PRES   REMARKS
CALGARY        MOCLDY    55  27  34 NW20G29   29.83S
LETHBRIDGE     MOCLDY    54  32  43 W35G44    29.90F
MEDICINE HAT   MOCLDY    55  34  45 SW20G28   29.82S
EDMONTON       MOCLDY    55  36  49 SW8       29.73F
WATERTON GATE  N/A       50  28  43 SW14G29    N/A
CARDSTON       N/A       54  32  43 W13G23     N/A
MILK RIVER     N/A       55  30  39 W16G23     N/A
$$

REGIONAL REPORTS...SASKATCHEWAN
CITY           SKY/WX    TMP DP  RH WIND       PRES   REMARKS
SWIFT CURRENT  CLEAR     54  34  47 SW12      29.81F
REGINA         MOCLDY    50  37  61 SE8       29.85F
VAL MARIE      N/A       57  30  36 W13        N/A
ASSINIBOIA     N/A       55  34  45 W8         N/A
CORONACH       N/A       54  32  43 W10        N/A

$$



USA.gov is the U.S. government's official web portal to all federal, state and local government web resources and services.